Location: Caltech
(34.1382°N, 118.1253°W)
Time: 22:18:26
(UTC-07:00)

Cosmos 2360 Rocket - Visible Passes

Search period start: 25 March 2017 00:00
Search period end: 04 April 2017 00:00
Orbit: 833 x 846 km, 71.0° (Epoch: 24 March)

Date Brightness Start Highest point End Pass type
(mag) Time Alt. Az. Time Alt. Az. Time Alt. Az.
25 Mar 4.2 03:24:41 24° NE 03:24:41 24° NE 03:27:07 10° NE visible
25 Mar 3.4 05:06:28 25° NW 05:06:28 25° NW 05:10:40 10° N visible
26 Mar 4.5 03:09:38 19° NE 03:09:38 19° NE 03:11:22 10° NE visible
26 Mar 3.4 04:51:25 26° NW 04:51:25 26° NW 04:55:04 10° N visible
27 Mar 4.8 02:54:31 15° NE 02:54:31 15° NE 02:55:38 10° NE visible
27 Mar 3.6 04:36:17 25° NNW 04:36:17 25° NNW 04:39:29 10° N visible
28 Mar 5.0 02:39:21 12° NE 02:39:21 12° NE 02:39:52 10° NE visible
28 Mar 3.7 04:21:07 24° NNW 04:21:07 24° NNW 04:23:53 10° N visible
29 Mar 3.9 04:05:54 22° NNW 04:05:54 22° NNW 04:08:17 10° N visible
30 Mar 4.1 03:50:39 20° N 03:50:39 20° N 03:52:40 10° N visible
31 Mar 4.3 03:35:22 19° N 03:35:22 19° N 03:37:04 10° N visible
01 Apr 4.4 03:20:03 17° N 03:20:03 17° N 03:21:27 10° N visible
02 Apr 4.6 03:04:43 16° N 03:04:43 16° N 03:05:50 10° N visible
03 Apr 4.7 02:49:20 14° N 02:49:20 14° N 02:50:12 10° N visible
